Location: Blankensee
(53.5126°N, 14.3055°E)
Time: 18:32:22
(UTC+00:00)

Meteor 1-29 - Pass Details

Date: 08 August 2020
Orbit: 438 x 460 km, 97.7° (Epoch: 19 September)

Event Time Altitude Azimuth Distance (km) Brightness Sun altitude
Rises 00:10:52 0° 15° (NNE) 2,504 8.4 -19.1°
Reaches altitude 10° 00:12:56 10° 16° (NNE) 1,624 7.0 -19.1°
Maximum altitude 00:16:25 82° 104° (ESE) 474 2.9 -18.9°
Enters shadow 00:16:57 62° 179° (S) 528 2.9 -18.9°
